Location: ?????? ??????
(44.3742°N, 135.2221°E)
Time: 03:19:56
(UTC+00:00)

Cosmos 2208 Rocket - Pass Details

Date: 19 May 2025
Orbit: 752 x 801 km, 74.0° (Epoch: 14 June)

Event Time Altitude Azimuth Distance (km) Brightness Sun altitude
Exits shadow 12:33:21 20° 190° (S) 1,748 5.5 -18.0°
Maximum altitude 12:37:05 74° 108° (ESE) 823 4.0 -18.4°
Drops below altitude 10° 12:42:25 10° 24° (NNE) 2,347 6.9 -18.9°
Sets 12:44:48 0° 23° (NNE) 3,272 7.8 -19.1°
